Time,TemperatureF,DewpointF,PressureIn,WindDirection,WindDirectionDegrees,WindSpeedMPH,WindSpeedGustMPH,Humidity,HourlyPrecipIn,Conditions,Clouds,dailyrainin,SoftwareType,DateUTC
2013-02-12 00:01:00,37.8,1.4,30.18,NNE,32,2.0,3.6,21,0.00,,,-99.99,FreeWX-Wi 1.02,2013-02-12 08:01:00,
2013-02-12 00:06:00,37.9,1.6,30.18,NNE,32,2.0,3.1,21,0.00,,,-99.99,FreeWX-Wi 1.02,2013-02-12 08:06:00,
2013-02-12 00:11:00,38.1,1.8,30.18,NNE,32,2.0,3.6,21,0.00,,,-99.99,FreeWX-Wi 1.02,2013-02-12 08:11:00,
2013-02-12 00:16:00,38.7,2.1,30.18,NNE,33,2.0,4.9,21,0.00,,,-99.99,FreeWX-Wi 1.02,2013-02-12 08:16:00,
2013-02-12 00:21:00,38.3,1.8,30.18,NNE,33,2.0,4.0,21,0.00,,,-99.99,FreeWX-Wi 1.02,2013-02-12 08:21:00,
2013-02-12 00:26:00,37.9,1.6,30.18,NNE,33,2.0,3.6,21,0.00,,,-99.99,FreeWX-Wi 1.02,2013-02-12 08:26:00,
2013-02-12 00:31:00,37.4,1.0,30.18,NNE,33,2.0,3.1,21,0.00,,,-99.99,FreeWX-Wi 1.02,2013-02-12 08:31:00,
2013-02-12 00:36:00,37.0,1.8,30.18,NE,34,2.0,3.1,22,0.00,,,-99.99,FreeWX-Wi 1.02,2013-02-12 08:36:00,
2013-02-12 00:41:00,37.4,1.0,30.18,NE,34,2.0,3.1,21,0.00,,,-99.99,FreeWX-Wi 1.02,2013-02-12 08:41:00,
2013-02-12 00:46:00,37.6,1.2,30.18,NE,34,2.0,2.7,21,0.00,,,-99.99,FreeWX-Wi 1.02,2013-02-12 08:46:00,
2013-02-12 00:51:00,37.4,1.0,30.18,NE,34,2.0,3.1,21,0.00,,,-99.99,FreeWX-Wi 1.02,2013-02-12 08:51:00,
2013-02-12 00:56:00,37.0,1.8,30.18,NE,34,2.0,3.6,22,0.00,,,-99.99,FreeWX-Wi 1.02,2013-02-12 08:56:00,
2013-02-12 01:01:00,36.9,1.6,30.18,NE,34,2.0,3.6,22,0.00,,,-99.99,FreeWX-Wi 1.02,2013-02-12 09:01:00,
2013-02-12 01:06:00,36.9,1.6,30.18,NE,34,2.0,3.6,22,0.00,,,-99.99,FreeWX-Wi 1.02,2013-02-12 09:06:00,
2013-02-12 01:11:00,37.8,1.4,30.18,NE,34,2.0,5.4,21,0.00,,,-99.99,FreeWX-Wi 1.02,2013-02-12 09:11:00,
2013-02-12 01:16:00,37.9,1.6,30.18,NE,35,2.0,2.7,21,0.00,,,-99.99,FreeWX-Wi 1.02,2013-02-12 09:16:00,
2013-02-12 01:21:00,37.0,1.8,30.18,NE,35,1.0,2.7,22,0.00,,,-99.99,FreeWX-Wi 1.02,2013-02-12 09:21:00,
2013-02-12 01:26:00,36.5,1.4,30.18,NE,35,1.0,0.0,22,0.00,,,-99.99,FreeWX-Wi 1.02,2013-02-12 09:26:00,
2013-02-12 01:31:00,36.9,1.6,30.18,North,-999,0.0,0.0,22,0.00,,,-99.99,FreeWX-Wi 1.02,2013-02-12 09:31:00,
2013-02-12 01:36:00,36.9,1.6,30.18,North,-999,0.0,0.0,22,0.00,,,-99.99,FreeWX-Wi 1.02,2013-02-12 09:36:00,
2013-02-12 01:41:00,36.5,1.4,30.18,North,-999,0.0,3.1,22,0.00,,,-99.99,FreeWX-Wi 1.02,2013-02-12 09:41:00,
2013-02-12 01:46:00,36.1,1.0,30.18,North,-999,0.0,3.1,22,0.00,,,-99.99,FreeWX-Wi 1.02,2013-02-12 09:46:00,
2013-02-12 01:51:00,36.1,1.0,30.18,North,-999,0.0,0.0,22,0.00,,,-99.99,FreeWX-Wi 1.02,2013-02-12 09:51:00,
2013-02-12 01:56:00,36.1,1.0,30.18,North,-999,0.0,0.0,22,0.00,,,-99.99,FreeWX-Wi 1.02,2013-02-12 09:56:00,
2013-02-12 02:01:00,36.1,1.0,30.18,North,-999,0.0,0.0,22,0.00,,,-99.99,FreeWX-Wi 1.02,2013-02-12 10:01:00,
2013-02-12 02:06:00,35.6,0.5,30.18,North,-999,0.0,3.1,22,0.00,,,-99.99,FreeWX-Wi 1.02,2013-02-12 10:06:00,
2013-02-12 02:11:00,35.2,0.3,30.18,North,-999,0.0,2.7,22,0.00,,,-99.99,FreeWX-Wi 1.02,2013-02-12 10:11:00,
2013-02-12 02:16:00,35.1,0.1,30.18,North,-999,0.0,3.1,22,0.00,,,-99.99,FreeWX-Wi 1.02,2013-02-12 10:16:00,
2013-02-12 02:21:00,35.1,0.1,30.18,NE,35,1.0,3.6,22,0.00,,,-99.99,FreeWX-Wi 1.02,2013-02-12 10:21:00,
2013-02-12 02:26:00,35.1,0.1,30.18,NE,35,1.0,3.6,22,0.00,,,-99.99,FreeWX-Wi 1.02,2013-02-12 10:26:00,
2013-02-12 02:31:00,35.4,0.3,30.18,NE,35,1.0,3.1,22,0.00,,,-99.99,FreeWX-Wi 1.02,2013-02-12 10:31:00,
2013-02-12 02:36:00,35.6,0.5,30.18,NE,35,1.0,2.2,22,0.00,,,-99.99,FreeWX-Wi 1.02,2013-02-12 10:36:00,
2013-02-12 02:41:00,35.4,0.3,30.18,NE,35,1.0,0.0,22,0.00,,,-99.99,FreeWX-Wi 1.02,2013-02-12 10:41:00,
2013-02-12 02:46:00,35.2,0.3,30.18,NE,35,1.0,3.1,22,0.00,,,-99.99,FreeWX-Wi 1.02,2013-02-12 10:46:00,
2013-02-12 02:51:00,35.2,0.3,30.18,NE,35,1.0,2.7,22,0.00,,,-99.99,FreeWX-Wi 1.02,2013-02-12 10:51:00,
2013-02-12 02:56:00,35.6,0.5,30.18,NE,35,1.0,3.1,22,0.00,,,-99.99,FreeWX-Wi 1.02,2013-02-12 10:56:00,
2013-02-12 03:01:00,35.6,0.5,30.18,North,-999,0.0,0.0,22,0.00,,,-99.99,FreeWX-Wi 1.02,2013-02-12 11:01:00,
2013-02-12 03:06:00,35.8,0.7,30.18,North,-999,0.0,2.7,22,0.00,,,-99.99,FreeWX-Wi 1.02,2013-02-12 11:06:00,
2013-02-12 03:11:00,35.8,0.7,30.18,NE,35,1.0,2.7,22,0.00,,,-99.99,FreeWX-Wi 1.02,2013-02-12 11:11:00,
2013-02-12 03:16:00,35.6,0.5,30.18,North,-999,0.0,2.7,22,0.00,,,-99.99,FreeWX-Wi 1.02,2013-02-12 11:16:00,
2013-02-12 03:21:00,35.6,0.5,30.18,NE,35,1.0,3.1,22,0.00,,,-99.99,FreeWX-Wi 1.02,2013-02-12 11:21:00,
2013-02-12 03:26:00,35.8,0.7,30.18,NE,35,1.0,2.7,22,0.00,,,-99.99,FreeWX-Wi 1.02,2013-02-12 11:26:00,
2013-02-12 03:31:00,35.8,0.7,30.18,NE,35,1.0,2.7,22,0.00,,,-99.99,FreeWX-Wi 1.02,2013-02-12 11:31:00,
2013-02-12 03:36:00,35.6,0.5,30.18,NE,35,1.0,3.6,22,0.00,,,-99.99,FreeWX-Wi 1.02,2013-02-12 11:36:00,
2013-02-12 03:41:00,35.6,0.5,30.18,NE,35,1.0,2.7,22,0.00,,,-99.99,FreeWX-Wi 1.02,2013-02-12 11:41:00,
2013-02-12 03:46:00,35.4,0.3,30.18,NE,35,1.0,3.6,22,0.00,,,-99.99,FreeWX-Wi 1.02,2013-02-12 11:46:00,
2013-02-12 03:51:00,35.2,0.3,30.18,NE,35,1.0,3.1,22,0.00,,,-99.99,FreeWX-Wi 1.02,2013-02-12 11:51:00,
2013-02-12 03:56:00,35.2,0.3,30.18,NE,35,1.0,3.1,22,0.00,,,-99.99,FreeWX-Wi 1.02,2013-02-12 11:56:00,
2013-02-12 04:01:00,35.6,0.5,30.18,NE,35,1.0,4.0,22,0.00,,,-99.99,FreeWX-Wi 1.02,2013-02-12 12:01:00,
2013-02-12 04:06:00,35.8,0.7,30.18,NE,35,1.0,2.7,22,0.00,,,-99.99,FreeWX-Wi 1.02,2013-02-12 12:06:00,
2013-02-12 04:11:00,35.8,0.7,30.18,NE,35,1.0,3.1,22,0.00,,,-99.99,FreeWX-Wi 1.02,2013-02-12 12:11:00,
2013-02-12 04:16:00,35.8,0.7,30.18,NE,35,1.0,2.2,22,0.00,,,-99.99,FreeWX-Wi 1.02,2013-02-12 12:16:00,
2013-02-12 04:21:00,36.0,0.9,30.18,NE,35,1.0,3.6,22,0.00,,,-99.99,FreeWX-Wi 1.02,2013-02-12 12:21:00,
2013-02-12 04:26:00,35.6,0.5,30.18,NE,35,1.0,3.1,22,0.00,,,-99.99,FreeWX-Wi 1.02,2013-02-12 12:26:00,
2013-02-12 04:31:00,35.6,0.5,30.18,NE,35,1.0,3.1,22,0.00,,,-99.99,FreeWX-Wi 1.02,2013-02-12 12:31:00,
2013-02-12 04:36:00,35.4,0.3,30.18,NE,35,1.0,3.6,22,0.00,,,-99.99,FreeWX-Wi 1.02,2013-02-12 12:36:00,
2013-02-12 04:41:00,35.1,0.1,30.18,NE,35,1.0,3.1,22,0.00,,,-99.99,FreeWX-Wi 1.02,2013-02-12 12:41:00,
2013-02-12 04:46:00,35.1,0.1,30.18,NE,35,1.0,3.6,22,0.00,,,-99.99,FreeWX-Wi 1.02,2013-02-12 12:46:00,
2013-02-12 04:51:00,35.1,0.1,30.18,NE,35,1.0,3.1,22,0.00,,,-99.99,FreeWX-Wi 1.02,2013-02-12 12:51:00,
2013-02-12 04:56:00,35.4,0.3,30.18,NE,35,1.0,3.1,22,0.00,,,-99.99,FreeWX-Wi 1.02,2013-02-12 12:56:00,
2013-02-12 05:01:00,35.4,0.3,30.18,NE,35,1.0,2.7,22,0.00,,,-99.99,FreeWX-Wi 1.02,2013-02-12 13:01:00,
2013-02-12 05:06:00,35.8,0.7,30.18,NE,35,1.0,3.6,22,0.00,,,-99.99,FreeWX-Wi 1.02,2013-02-12 13:06:00,
2013-02-12 05:11:00,35.8,0.7,30.18,NE,35,1.0,3.1,22,0.00,,,-99.99,FreeWX-Wi 1.02,2013-02-12 13:11:00,
2013-02-12 05:16:00,35.8,0.7,30.21,NE,35,1.0,3.6,22,0.00,,,-99.99,FreeWX-Wi 1.02,2013-02-12 13:16:00,
2013-02-12 05:22:00,35.6,0.5,30.21,NE,35,1.0,4.0,22,0.00,,,-99.99,FreeWX-Wi 1.02,2013-02-12 13:22:00,
2013-02-12 05:27:00,35.4,0.3,30.21,NE,35,1.0,2.7,22,0.00,,,-99.99,FreeWX-Wi 1.02,2013-02-12 13:27:00,
2013-02-12 05:32:00,35.1,0.1,30.21,North,-999,0.0,0.0,22,0.00,,,-99.99,FreeWX-Wi 1.02,2013-02-12 13:32:00,
2013-02-12 05:37:00,34.9,0.0,30.21,North,-999,0.0,0.0,22,0.00,,,-99.99,FreeWX-Wi 1.02,2013-02-12 13:37:00,
2013-02-12 05:42:00,34.9,0.0,30.21,North,-999,0.0,3.6,22,0.00,,,-99.99,FreeWX-Wi 1.02,2013-02-12 13:42:00,
2013-02-12 05:47:00,34.7,-0.2,30.21,North,-999,0.0,3.6,22,0.00,,,-99.99,FreeWX-Wi 1.02,2013-02-12 13:47:00,
2013-02-12 05:52:00,34.3,-0.6,30.21,North,-999,0.0,4.0,22,0.00,,,-99.99,FreeWX-Wi 1.02,2013-02-12 13:52:00,
2013-02-12 05:57:00,34.3,-0.6,30.21,North,-999,0.0,2.7,22,0.00,,,-99.99,FreeWX-Wi 1.02,2013-02-12 13:57:00,
2013-02-12 06:02:00,34.0,-0.8,30.21,North,-999,0.0,4.0,22,0.00,,,-99.99,FreeWX-Wi 1.02,2013-02-12 14:02:00,
2013-02-12 06:07:00,33.8,-0.9,30.21,North,-999,0.0,3.1,22,0.00,,,-99.99,FreeWX-Wi 1.02,2013-02-12 14:07:00,
2013-02-12 06:12:00,34.0,-0.8,30.21,North,-999,0.0,2.7,22,0.00,,,-99.99,FreeWX-Wi 1.02,2013-02-12 14:12:00,
2013-02-12 06:17:00,34.0,-0.8,30.24,North,-999,0.0,0.0,22,0.00,,,-99.99,FreeWX-Wi 1.02,2013-02-12 14:17:00,
2013-02-12 06:22:00,34.2,-0.6,30.24,North,-999,0.0,2.7,22,0.00,,,-99.99,FreeWX-Wi 1.02,2013-02-12 14:22:00,
2013-02-12 06:27:00,34.3,-0.6,30.24,North,-999,0.0,4.0,22,0.00,,,-99.99,FreeWX-Wi 1.02,2013-02-12 14:27:00,
2013-02-12 06:32:00,34.9,0.0,30.24,North,-999,0.0,2.7,22,0.00,,,-99.99,FreeWX-Wi 1.02,2013-02-12 14:32:00,
2013-02-12 06:37:00,34.7,-0.2,30.24,North,-999,0.0,3.1,22,0.00,,,-99.99,FreeWX-Wi 1.02,2013-02-12 14:37:00,
2013-02-12 06:42:00,34.3,-0.6,30.24,North,-999,0.0,2.7,22,0.00,,,-99.99,FreeWX-Wi 1.02,2013-02-12 14:42:00,
2013-02-12 06:47:00,34.2,-0.6,30.27,NE,36,1.0,3.1,22,0.00,,,-99.99,FreeWX-Wi 1.02,2013-02-12 14:47:00,
2013-02-12 06:52:00,34.5,-0.4,30.27,NE,36,1.0,2.7,22,0.00,,,-99.99,FreeWX-Wi 1.02,2013-02-12 14:52:00,
2013-02-12 06:57:00,35.1,0.1,30.27,North,-999,0.0,3.1,22,0.00,,,-99.99,FreeWX-Wi 1.02,2013-02-12 14:57:00,
2013-02-12 07:02:00,35.2,0.3,30.27,North,-999,0.0,0.0,22,0.00,,,-99.99,FreeWX-Wi 1.02,2013-02-12 15:02:00,
2013-02-12 07:07:00,35.8,0.7,30.27,North,-999,0.0,4.0,22,0.00,,,-99.99,FreeWX-Wi 1.02,2013-02-12 15:07:00,
2013-02-12 07:12:00,36.3,1.2,30.27,North,-999,0.0,3.1,22,0.00,,,-99.99,FreeWX-Wi 1.02,2013-02-12 15:12:00,
2013-02-12 07:17:00,36.7,1.4,30.27,North,-999,0.0,2.7,22,0.00,,,-99.99,FreeWX-Wi 1.02,2013-02-12 15:17:00,
2013-02-12 07:22:00,37.4,1.0,30.27,North,-999,0.0,2.7,21,0.00,,,-99.99,FreeWX-Wi 1.02,2013-02-12 15:22:00,
2013-02-12 07:27:00,38.1,1.8,30.27,North,-999,0.0,0.0,21,0.00,,,-99.99,FreeWX-Wi 1.02,2013-02-12 15:27:00,
2013-02-12 07:32:00,39.7,3.0,30.30,North,-999,0.0,2.7,21,0.00,,,-99.99,FreeWX-Wi 1.02,2013-02-12 15:32:00,
2013-02-12 07:37:00,40.8,3.9,30.30,North,-999,0.0,2.2,21,0.00,,,-99.99,FreeWX-Wi 1.02,2013-02-12 15:37:00,
2013-02-12 15:03:00,68.0,21.6,30.21,WSW,249,2.0,7.6,17,0.00,,,-99.99,FreeWX-Wi 1.02,2013-02-12 23:03:00,
2013-02-12 15:08:00,67.6,21.2,30.21,West,267,2.0,6.3,17,0.00,,,-99.99,FreeWX-Wi 1.02,2013-02-12 23:08:00,
2013-02-12 15:13:00,67.6,21.2,30.21,WNW,293,2.0,7.6,17,0.00,,,-99.99,FreeWX-Wi 1.02,2013-02-12 23:13:00,
2013-02-12 15:18:00,68.0,21.6,30.21,North,349,3.0,6.3,17,0.00,,,-99.99,FreeWX-Wi 1.02,2013-02-12 23:18:00,
2013-02-12 15:23:00,67.8,21.4,30.21,North,11,3.0,9.2,17,0.00,,,-99.99,FreeWX-Wi 1.02,2013-02-12 23:23:00,
2013-02-12 15:28:00,68.0,21.6,30.21,NNE,15,3.0,5.4,17,0.00,,,-99.99,FreeWX-Wi 1.02,2013-02-12 23:28:00,
2013-02-12 15:33:00,67.8,21.4,30.21,NNE,15,3.0,5.8,17,0.00,,,-99.99,FreeWX-Wi 1.02,2013-02-12 23:33:00,
2013-02-12 15:38:00,67.5,21.2,30.21,NNE,18,3.0,6.3,17,0.00,,,-99.99,FreeWX-Wi 1.02,2013-02-12 23:38:00,
2013-02-12 15:43:00,67.8,21.4,30.21,NNE,24,3.0,5.4,17,0.00,,,-99.99,FreeWX-Wi 1.02,2013-02-12 23:43:00,
2013-02-12 15:48:00,67.8,21.4,30.21,NNE,24,3.0,5.8,17,0.00,,,-99.99,FreeWX-Wi 1.02,2013-02-12 23:48:00,
2013-02-12 15:53:00,66.7,20.5,30.21,NNE,27,4.0,7.6,17,0.00,,,-99.99,FreeWX-Wi 1.02,2013-02-12 23:53:00,
2013-02-12 15:58:00,66.4,20.3,30.21,NNE,31,4.0,8.3,17,0.00,,,-99.99,FreeWX-Wi 1.02,2013-02-12 23:58:00,
2013-02-12 16:03:00,66.4,20.3,30.21,NE,44,4.0,4.0,17,0.00,,,-99.99,FreeWX-Wi 1.02,2013-02-13 00:03:00,
2013-02-12 16:08:00,66.0,21.4,30.21,NE,56,3.0,3.6,18,0.00,,,-99.99,FreeWX-Wi 1.02,2013-02-13 00:08:00,
2013-02-12 16:13:00,64.9,20.5,30.21,NE,48,3.0,7.6,18,0.00,,,-99.99,FreeWX-Wi 1.02,2013-02-13 00:13:00,
2013-02-12 16:18:00,64.6,20.1,30.21,NE,44,3.0,7.6,18,0.00,,,-99.99,FreeWX-Wi 1.02,2013-02-13 00:18:00,
2013-02-12 16:23:00,64.2,19.8,30.21,NE,45,3.0,5.4,18,0.00,,,-99.99,FreeWX-Wi 1.02,2013-02-13 00:23:00,
2013-02-12 16:28:00,64.0,19.8,30.21,NE,45,3.0,8.3,18,0.00,,,-99.99,FreeWX-Wi 1.02,2013-02-13 00:28:00,
2013-02-12 16:33:00,63.9,19.6,30.21,NE,35,4.0,8.7,18,0.00,,,-99.99,FreeWX-Wi 1.02,2013-02-13 00:33:00,
2013-02-12 16:38:00,63.5,19.2,30.21,NNE,24,4.0,11.4,18,0.00,,,-99.99,FreeWX-Wi 1.02,2013-02-13 00:38:00,
2013-02-12 16:43:00,63.1,19.0,30.21,NNE,22,5.0,8.7,18,0.00,,,-99.99,FreeWX-Wi 1.02,2013-02-13 00:43:00,
2013-02-12 16:48:00,62.6,18.5,30.21,NNE,23,5.0,7.6,18,0.00,,,-99.99,FreeWX-Wi 1.02,2013-02-13 00:48:00,
2013-02-12 16:53:00,62.2,19.4,30.21,NNE,25,5.0,8.1,19,0.00,,,-99.99,FreeWX-Wi 1.02,2013-02-13 00:53:00,
2013-02-12 16:58:00,62.1,19.4,30.21,NNE,23,5.0,8.3,19,0.00,,,-99.99,FreeWX-Wi 1.02,2013-02-13 00:58:00,
2013-02-12 17:03:00,61.7,19.0,30.21,NNE,21,5.0,8.1,19,0.00,,,-99.99,FreeWX-Wi 1.02,2013-02-13 01:03:00,
2013-02-12 17:08:00,61.5,18.9,30.21,NNE,24,5.0,8.3,19,0.00,,,-99.99,FreeWX-Wi 1.02,2013-02-13 01:08:00,
2013-02-12 17:13:00,61.3,18.7,30.21,NNE,26,5.0,13.2,19,0.00,,,-99.99,FreeWX-Wi 1.02,2013-02-13 01:13:00,
2013-02-12 17:18:00,61.2,18.5,30.21,NNE,26,6.0,12.3,19,0.00,,,-99.99,FreeWX-Wi 1.02,2013-02-13 01:18:00,
2013-02-12 17:23:00,61.0,18.5,30.21,NNE,24,6.0,11.0,19,0.00,,,-99.99,FreeWX-Wi 1.02,2013-02-13 01:23:00,
2013-02-12 17:28:00,60.6,18.1,30.21,NNE,22,6.0,8.3,19,0.00,,,-99.99,FreeWX-Wi 1.02,2013-02-13 01:28:00,
2013-02-12 17:33:00,59.7,17.4,30.21,NNE,22,6.0,6.3,19,0.00,,,-99.99,FreeWX-Wi 1.02,2013-02-13 01:33:00,
2013-02-12 17:38:00,59.5,17.2,30.21,NNE,21,6.0,9.6,19,0.00,,,-99.99,FreeWX-Wi 1.02,2013-02-13 01:38:00,
2013-02-12 17:43:00,59.7,17.4,30.21,NNE,21,6.0,11.4,19,0.00,,,-99.99,FreeWX-Wi 1.02,2013-02-13 01:43:00,
2013-02-12 17:48:00,59.4,17.1,30.21,NNE,23,6.0,8.3,19,0.00,,,-99.99,FreeWX-Wi 1.02,2013-02-13 01:48:00,
2013-02-12 17:53:00,58.6,16.5,30.21,NNE,27,6.0,6.3,19,0.00,,,-99.99,FreeWX-Wi 1.02,2013-02-13 01:53:00,
2013-02-12 17:58:00,58.1,16.2,30.21,NE,34,5.0,8.3,19,0.00,,,-99.99,FreeWX-Wi 1.02,2013-02-13 01:58:00,
2013-02-12 18:03:00,57.9,16.0,30.21,NE,38,5.0,8.7,19,0.00,,,-99.99,FreeWX-Wi 1.02,2013-02-13 02:03:00,
2013-02-12 18:08:00,58.1,16.2,30.21,NE,38,5.0,8.1,19,0.00,,,-99.99,FreeWX-Wi 1.02,2013-02-13 02:08:00,
2013-02-12 18:13:00,57.9,16.0,30.21,NE,41,4.0,8.7,19,0.00,,,-99.99,FreeWX-Wi 1.02,2013-02-13 02:13:00,
2013-02-12 18:18:00,57.6,15.6,30.21,NE,43,4.0,7.6,19,0.00,,,-99.99,FreeWX-Wi 1.02,2013-02-13 02:18:00,
2013-02-12 18:23:00,57.2,15.3,30.21,NE,44,4.0,9.2,19,0.00,,,-99.99,FreeWX-Wi 1.02,2013-02-13 02:23:00,
2013-02-12 18:28:00,57.2,15.3,30.21,NE,42,5.0,8.1,19,0.00,,,-99.99,FreeWX-Wi 1.02,2013-02-13 02:28:00,
2013-02-12 18:33:00,57.2,15.3,30.21,NE,44,5.0,9.6,19,0.00,,,-99.99,FreeWX-Wi 1.02,2013-02-13 02:33:00,
2013-02-12 18:39:00,57.2,15.3,30.21,NE,47,5.0,7.2,19,0.00,,,-99.99,FreeWX-Wi 1.02,2013-02-13 02:39:00,
2013-02-12 18:44:00,57.0,16.3,30.21,NE,49,5.0,8.7,20,0.00,,,-99.99,FreeWX-Wi 1.02,2013-02-13 02:44:00,
2013-02-12 18:49:00,56.8,16.2,30.24,NE,50,4.0,5.8,20,0.00,,,-99.99,FreeWX-Wi 1.02,2013-02-13 02:49:00,
2013-02-12 18:54:00,56.5,16.0,30.24,NE,54,4.0,4.9,20,0.00,,,-99.99,FreeWX-Wi 1.02,2013-02-13 02:54:00,
2013-02-12 18:59:00,55.9,15.4,30.24,ENE,60,4.0,5.8,20,0.00,,,-99.99,FreeWX-Wi 1.02,2013-02-13 02:59:00,
2013-02-12 19:04:00,55.4,15.1,30.24,ENE,63,4.0,4.0,20,0.00,,,-99.99,FreeWX-Wi 1.02,2013-02-13 03:04:00,
2013-02-12 19:09:00,55.2,14.9,30.24,ENE,64,3.0,5.4,20,0.00,,,-99.99,FreeWX-Wi 1.02,2013-02-13 03:09:00,
2013-02-12 19:14:00,54.9,14.5,30.24,ENE,63,3.0,5.8,20,0.00,,,-99.99,FreeWX-Wi 1.02,2013-02-13 03:14:00,
2013-02-12 19:19:00,55.0,14.7,30.24,ENE,62,3.0,4.0,20,0.00,,,-99.99,FreeWX-Wi 1.02,2013-02-13 03:19:00,
2013-02-12 19:24:00,54.1,14.0,30.24,ENE,57,3.0,3.6,20,0.00,,,-99.99,FreeWX-Wi 1.02,2013-02-13 03:24:00,
2013-02-12 19:29:00,53.8,13.6,30.24,NE,51,2.0,4.0,20,0.00,,,-99.99,FreeWX-Wi 1.02,2013-02-13 03:29:00,
2013-02-12 19:34:00,53.2,14.4,30.24,NE,46,2.0,3.1,21,0.00,,,-99.99,FreeWX-Wi 1.02,2013-02-13 03:34:00,
2013-02-12 19:39:00,52.3,13.6,30.24,NE,44,1.0,0.0,21,0.00,,,-99.99,FreeWX-Wi 1.02,2013-02-13 03:39:00,
2013-02-12 19:44:00,50.7,12.2,30.24,NE,43,1.0,0.0,21,0.00,,,-99.99,FreeWX-Wi 1.02,2013-02-13 03:44:00,
2013-02-12 19:49:00,49.8,9.3,30.24,North,-999,0.0,0.0,19,0.00,,,-99.99,FreeWX-Wi 1.02,2013-02-13 03:49:00,
2013-02-12 19:54:00,49.6,9.1,30.24,North,-999,0.0,3.6,19,0.00,,,-99.99,FreeWX-Wi 1.02,2013-02-13 03:54:00,
2013-02-12 19:59:00,48.9,8.4,30.24,North,-999,0.0,3.1,19,0.00,,,-99.99,FreeWX-Wi 1.02,2013-02-13 03:59:00,
2013-02-12 20:04:00,48.7,8.4,30.24,North,-999,0.0,4.0,19,0.00,,,-99.99,FreeWX-Wi 1.02,2013-02-13 04:04:00,
2013-02-12 20:09:00,49.3,8.8,30.24,North,-999,0.0,3.6,19,0.00,,,-99.99,FreeWX-Wi 1.02,2013-02-13 04:09:00,
2013-02-12 20:14:00,49.6,9.1,30.24,North,-999,0.0,3.6,19,0.00,,,-99.99,FreeWX-Wi 1.02,2013-02-13 04:14:00,
2013-02-12 20:19:00,50.4,11.8,30.24,North,-999,0.0,3.6,21,0.00,,,-99.99,FreeWX-Wi 1.02,2013-02-13 04:19:00,
2013-02-12 20:24:00,50.7,10.0,30.24,North,-999,0.0,3.1,19,0.00,,,-99.99,FreeWX-Wi 1.02,2013-02-13 04:24:00,
2013-02-12 20:29:00,50.2,9.5,30.24,North,-999,0.0,3.6,19,0.00,,,-99.99,FreeWX-Wi 1.02,2013-02-13 04:29:00,
2013-02-12 20:34:00,49.8,9.3,30.24,NNE,18,1.0,4.9,19,0.00,,,-99.99,FreeWX-Wi 1.02,2013-02-13 04:34:00,
2013-02-12 20:39:00,49.3,8.8,30.24,North,-999,0.0,0.0,19,0.00,,,-99.99,FreeWX-Wi 1.02,2013-02-13 04:39:00,
2013-02-12 20:44:00,48.4,8.1,30.24,North,-999,0.0,0.0,19,0.00,,,-99.99,FreeWX-Wi 1.02,2013-02-13 04:44:00,
2013-02-12 20:49:00,48.6,8.2,30.24,North,-999,0.0,0.0,19,0.00,,,-99.99,FreeWX-Wi 1.02,2013-02-13 04:49:00,
2013-02-12 20:54:00,48.2,7.9,30.24,North,-999,0.0,3.1,19,0.00,,,-99.99,FreeWX-Wi 1.02,2013-02-13 04:54:00,
2013-02-12 20:59:00,47.5,7.3,30.24,North,-999,0.0,0.0,19,0.00,,,-99.99,FreeWX-Wi 1.02,2013-02-13 04:59:00,
2013-02-12 21:04:00,46.8,6.8,30.24,North,-999,0.0,0.0,19,0.00,,,-99.99,FreeWX-Wi 1.02,2013-02-13 05:04:00,
2013-02-12 21:09:00,46.4,6.4,30.24,North,-999,0.0,4.0,19,0.00,,,-99.99,FreeWX-Wi 1.02,2013-02-13 05:09:00,
2013-02-12 21:14:00,46.2,7.3,30.24,North,-999,0.0,3.6,20,0.00,,,-99.99,FreeWX-Wi 1.02,2013-02-13 05:14:00,
2013-02-12 21:19:00,46.6,6.6,30.24,NNE,21,1.0,3.6,19,0.00,,,-99.99,FreeWX-Wi 1.02,2013-02-13 05:19:00,
2013-02-12 21:24:00,47.5,7.3,30.24,NNE,20,1.0,4.0,19,0.00,,,-99.99,FreeWX-Wi 1.02,2013-02-13 05:24:00,
2013-02-12 21:29:00,46.9,6.8,30.24,NNE,20,1.0,3.6,19,0.00,,,-99.99,FreeWX-Wi 1.02,2013-02-13 05:29:00,
2013-02-12 21:34:00,46.4,6.4,30.24,NNE,21,2.0,4.0,19,0.00,,,-99.99,FreeWX-Wi 1.02,2013-02-13 05:34:00,
2013-02-12 21:39:00,46.2,7.3,30.24,NNE,21,1.0,2.7,20,0.00,,,-99.99,FreeWX-Wi 1.02,2013-02-13 05:39:00,
2013-02-12 21:44:00,45.7,7.0,30.24,NNE,20,1.0,2.7,20,0.00,,,-99.99,FreeWX-Wi 1.02,2013-02-13 05:44:00,
2013-02-12 21:49:00,46.2,7.3,30.24,NNE,20,1.0,3.6,20,0.00,,,-99.99,FreeWX-Wi 1.02,2013-02-13 05:49:00,
2013-02-12 21:54:00,45.7,7.0,30.24,NNE,21,1.0,2.7,20,0.00,,,-99.99,FreeWX-Wi 1.02,2013-02-13 05:54:00,
2013-02-12 21:59:00,45.1,6.4,30.24,NNE,22,1.0,2.7,20,0.00,,,-99.99,FreeWX-Wi 1.02,2013-02-13 05:59:00,
2013-02-12 22:04:00,44.6,6.1,30.24,North,-999,0.0,3.1,20,0.00,,,-99.99,FreeWX-Wi 1.02,2013-02-13 06:04:00,
2013-02-12 22:09:00,44.4,5.9,30.24,NNE,22,1.0,2.7,20,0.00,,,-99.99,FreeWX-Wi 1.02,2013-02-13 06:09:00,
2013-02-12 22:14:00,44.2,5.7,30.24,North,-999,0.0,0.0,20,0.00,,,-99.99,FreeWX-Wi 1.02,2013-02-13 06:14:00,
2013-02-12 22:19:00,43.7,5.4,30.24,North,-999,0.0,2.7,20,0.00,,,-99.99,FreeWX-Wi 1.02,2013-02-13 06:19:00,
2013-02-12 22:24:00,43.2,4.8,30.24,North,-999,0.0,2.7,20,0.00,,,-99.99,FreeWX-Wi 1.02,2013-02-13 06:24:00,
2013-02-12 22:29:00,42.8,4.5,30.24,North,-999,0.0,0.0,20,0.00,,,-99.99,FreeWX-Wi 1.02,2013-02-13 06:29:00,
2013-02-12 22:34:00,42.4,5.4,30.24,North,-999,0.0,0.0,21,0.00,,,-99.99,FreeWX-Wi 1.02,2013-02-13 06:34:00,
2013-02-12 22:39:00,42.3,5.2,30.24,North,-999,0.0,0.0,21,0.00,,,-99.99,FreeWX-Wi 1.02,2013-02-13 06:39:00,
2013-02-12 22:44:00,42.4,5.4,30.24,North,-999,0.0,2.7,21,0.00,,,-99.99,FreeWX-Wi 1.02,2013-02-13 06:44:00,
2013-02-12 22:49:00,42.4,5.4,30.24,North,-999,0.0,2.7,21,0.00,,,-99.99,FreeWX-Wi 1.02,2013-02-13 06:49:00,
2013-02-12 22:54:00,42.4,5.4,30.24,North,-999,0.0,0.0,21,0.00,,,-99.99,FreeWX-Wi 1.02,2013-02-13 06:54:00,
2013-02-12 22:59:00,42.3,5.2,30.24,North,-999,0.0,0.0,21,0.00,,,-99.99,FreeWX-Wi 1.02,2013-02-13 06:59:00,
2013-02-12 23:04:00,41.9,4.8,30.24,North,-999,0.0,0.0,21,0.00,,,-99.99,FreeWX-Wi 1.02,2013-02-13 07:04:00,
2013-02-12 23:09:00,41.5,4.5,30.24,North,-999,0.0,0.0,21,0.00,,,-99.99,FreeWX-Wi 1.02,2013-02-13 07:09:00,
2013-02-12 23:14:00,41.7,4.6,30.24,North,-999,0.0,0.0,21,0.00,,,-99.99,FreeWX-Wi 1.02,2013-02-13 07:14:00,
2013-02-12 23:19:00,41.4,4.5,30.24,North,-999,0.0,2.7,21,0.00,,,-99.99,FreeWX-Wi 1.02,2013-02-13 07:19:00,
2013-02-12 23:24:00,41.5,4.5,30.24,North,-999,0.0,3.1,21,0.00,,,-99.99,FreeWX-Wi 1.02,2013-02-13 07:24:00,
2013-02-12 23:29:00,41.5,4.5,30.24,North,-999,0.0,3.6,21,0.00,,,-99.99,FreeWX-Wi 1.02,2013-02-13 07:29:00,
2013-02-12 23:34:00,41.5,4.5,30.24,North,-999,0.0,2.7,21,0.00,,,-99.99,FreeWX-Wi 1.02,2013-02-13 07:34:00,
2013-02-12 23:39:00,41.4,4.5,30.24,North,-999,0.0,0.0,21,0.00,,,-99.99,FreeWX-Wi 1.02,2013-02-13 07:39:00,
2013-02-12 23:44:00,41.5,4.5,30.24,North,-999,0.0,3.1,21,0.00,,,-99.99,FreeWX-Wi 1.02,2013-02-13 07:44:00,
2013-02-12 23:49:00,41.4,4.5,30.24,North,-999,0.0,2.7,21,0.00,,,-99.99,FreeWX-Wi 1.02,2013-02-13 07:49:00,
2013-02-12 23:54:00,41.2,4.3,30.24,North,-999,0.0,0.0,21,0.00,,,-99.99,FreeWX-Wi 1.02,2013-02-13 07:54:00,
2013-02-12 23:59:00,41.2,4.3,30.24,North,-999,0.0,0.0,21,0.00,,,-99.99,FreeWX-Wi 1.02,2013-02-13 07:59:00,